Location: Bosmont
(49.7318°N, 3.8587°E)
Time: 12:06:21
(UTC+00:00)

Cosmos 1943 Rocket - Visible Passes

Search period start: 17 September 2024 00:00
Search period end: 27 September 2024 00:00
Orbit: 813 x 841 km, 71.0° (Epoch: 17 September)

Date Brightness Start Highest point End Pass type
(mag) Time Alt. Az. Time Alt. Az. Time Alt. Az.
17 Sep 2.3 18:47:06 10° NNW 18:52:38 79° WSW 18:58:10 10° SSE visible
17 Sep 4.8 20:32:52 10° WNW 20:35:26 13° W 20:38:01 10° SW visible
18 Sep 2.2 18:27:38 10° NNW 18:33:11 88° WSW 18:38:44 10° SSE visible
18 Sep 4.7 20:12:58 10° WNW 20:16:06 15° W 20:19:13 10° SW visible
19 Sep 4.7 19:53:10 10° WNW 19:56:44 18° W 20:00:17 10° SW visible
20 Sep 4.6 19:33:28 10° NW 19:37:22 20° W 19:41:17 10° SW visible
21 Sep 4.5 19:13:47 10° NW 19:18:00 23° WSW 19:22:12 10° SSW visible
22 Sep 4.4 18:54:09 10° NW 18:58:37 26° WSW 19:03:05 10° SSW visible
23 Sep 4.3 18:34:33 10° NW 18:39:13 29° WSW 18:43:54 10° SSW visible
24 Sep 4.1 18:14:57 10° NW 18:19:49 32° WSW 18:24:41 10° SSW visible
